Location: Newark
(41.8083°N, 72.2500°W)
Time: 21:22:32
(UTC+00:00)

Courier 1B - Pass Details

Date: 30 November 2021
Orbit: 962 x 1209 km, 28.3° (Epoch: 19 January)

Event Time Altitude Azimuth Distance (km) Brightness Sun altitude
Rises 03:10:28 0° 255° (WSW) 3,732 - -62.8°
Reaches altitude 10° 03:14:12 10° 236° (SW) 2,742 - -63.3°
Maximum altitude 03:18:12 17° 198° (SSW) 2,244 - -63.9°
Drops below altitude 10° 03:22:10 10° 160° (SSE) 2,688 - -64.4°
Sets 03:25:46 0° 140° (SE) 3,626 - -64.8°
